Terminal Aerodrome Forecast
Issued by NWS

Home | Current Version | Previous Version | Text Only | Print | Product List | Glossary On
Versions: 1 2 3 4 5 6 7 8 9 10 11 12 13 14 15 16 17 18 19 20 21 22 23 24 25 26 27 28 29 30 31 32 33 34 35 36 37 38 39 40 41
000
FTUS46 KOTX 260240 AAA
TAFPUW
TAF AMD
KPUW 260240Z 2603/2624 25007KT P6SM BKN015 OVC020
     FM260800 23005KT P6SM BKN010 OVC070=

USA.gov is the U.S. government's official web portal to all federal, state and local government web resources and services.